Starlink 11235

operational
NORAD ID: 60726 Int'l Des: 2024-152 Owner: SPXS Country: US Constellation: starlink
LEOCIRCULAR

关于 Starlink 11235

正在加载描述...

实时位置

正在加载3D地球...

即将过境

高度历史

Altitude vs Time

uPlot chart will show altitude changes over time

两行轨道根数

1 60726U 24152G 26037.86264828 .00004859 00000-0 44913-4 0 9998
2 60726 53.1582 268.1945 0001442 139.9153 220.1972 15.69726412 84125
Epoch: Feb 6, 2026 • Age: 7 hours

当前状态

高度 371.4 km
速度 7.69 km/s
星下点 -36.52°S, 73.78°W
发射日期 Aug 28, 2024
运行时间 1.4 years
类型 internet

技术详情

分类 Payload
质量 960.00 kg
干质量 910.00 kg
总质量 960.00 kg
长度 0.30 m
直径 4.10 m
跨度 29.00 m
形状 Box + pan
制造商 SPXS
平台类型 Starlink V2MD
阶段状态 In Orbit
所有者/国家 SPXS/US

大型星座

Loading constellations...